,,PressureMeas_1m,,PRMeasQMR101_1,,RHStat155_1m_1,,SRMeasQMS101R_1m,,TAStat155_1m_1,,GenWind_1,,GenWind_1,
2017-07-08, 00:00:07,VALID,920.419,VALID,0.0,VALID,98.576,VALID,0.004,VALID,17.958,VALID,129.0,VALID,0.45,
2017-07-08, 00:01:07,VALID,920.404,VALID,0.0,VALID,98.557,VALID,-0.012,VALID,17.95,VALID,146.0,VALID,0.501,
2017-07-08, 00:02:07,VALID,920.396,VALID,0.0,VALID,98.55,VALID,0.007,VALID,17.947,VALID,146.0,VALID,0.525,
2017-07-08, 00:03:07,VALID,920.388,VALID,0.0,VALID,98.555,VALID,0.003,VALID,17.962,VALID,153.0,VALID,0.454,
2017-07-08, 00:04:07,VALID,920.374,VALID,0.0,VALID,98.592,VALID,-0.004,VALID,17.995,VALID,157.0,VALID,0.188,
2017-07-08, 00:05:07,VALID,920.355,VALID,0.0,VALID,98.573,VALID,0.016,VALID,18.007,VALID,165.0,VALID,0.134,
2017-07-08, 00:06:07,VALID,920.354,VALID,0.0,VALID,98.582,VALID,0.016,VALID,18.017,VALID,176.0,VALID,0.0,
2017-07-08, 00:07:07,VALID,920.322,VALID,0.0,VALID,98.556,VALID,0.02,VALID,18.022,VALID,176.0,VALID,0.0,
2017-07-08, 00:08:07,VALID,920.307,VALID,0.0,VALID,98.559,VALID,0.001,VALID,18.032,VALID,177.0,VALID,0.0,
2017-07-08, 00:09:07,VALID,920.289,VALID,0.0,VALID,98.55,VALID,0.006,VALID,18.037,VALID,181.0,VALID,0.0,
2017-07-08, 00:10:07,VALID,920.283,VALID,0.0,VALID,98.511,VALID,0.01,VALID,18.025,VALID,180.0,VALID,0.0,
2017-07-08, 00:11:07,VALID,920.272,VALID,0.0,VALID,98.502,VALID,0.009,VALID,18.029,VALID,170.0,VALID,0.0,
2017-07-08, 00:12:07,VALID,920.262,VALID,0.0,VALID,98.482,VALID,0.01,VALID,18.009,VALID,150.0,VALID,0.0,
2017-07-08, 00:13:07,VALID,920.245,VALID,0.0,VALID,98.453,VALID,-0.003,VALID,17.995,VALID,135.0,VALID,0.347,
2017-07-08, 00:14:07,VALID,920.24,VALID,0.0,VALID,98.437,VALID,-0.003,VALID,18.004,VALID,120.0,VALID,0.571,
2017-07-08, 00:15:07,VALID,920.246,VALID,0.0,VALID,98.43,VALID,0.005,VALID,18.0,VALID,119.0,VALID,0.37,
2017-07-08, 00:16:07,VALID,920.238,VALID,0.0,VALID,98.439,VALID,0.0,VALID,18.003,VALID,115.0,VALID,0.484,
2017-07-08, 00:17:07,VALID,920.246,VALID,0.0,VALID,98.431,VALID,0.01,VALID,18.011,VALID,113.0,VALID,0.583,
2017-07-08, 00:18:07,VALID,920.252,VALID,0.0,VALID,98.438,VALID,0.015,VALID,18.018,VALID,116.0,VALID,0.387,
2017-07-08, 00:19:07,VALID,920.246,VALID,0.0,VALID,98.463,VALID,0.016,VALID,18.034,VALID,118.0,VALID,0.355,
2017-07-08, 00:20:07,VALID,920.248,VALID,0.0,VALID,98.432,VALID,0.009,VALID,18.029,VALID,119.0,VALID,0.337,
2017-07-08, 00:21:07,VALID,920.24,VALID,0.0,VALID,98.408,VALID,-0.0,VALID,18.021,VALID,119.0,VALID,0.27,
2017-07-08, 00:22:07,VALID,920.23,VALID,0.0,VALID,98.383,VALID,0.009,VALID,18.021,VALID,118.0,VALID,0.199,
2017-07-08, 00:23:07,VALID,920.209,VALID,0.0,VALID,98.4,VALID,0.016,VALID,18.046,VALID,118.0,VALID,0.095,
2017-07-08, 00:24:07,VALID,920.202,VALID,0.0,VALID,98.391,VALID,0.022,VALID,18.057,VALID,118.0,VALID,0.026,
2017-07-08, 00:25:07,VALID,920.194,VALID,0.0,VALID,98.38,VALID,0.031,VALID,18.064,VALID,118.0,VALID,0.154,
2017-07-08, 00:26:07,VALID,920.197,VALID,0.0,VALID,98.385,VALID,0.044,VALID,18.064,VALID,118.0,VALID,0.112,
2017-07-08, 00:27:07,VALID,920.197,VALID,0.0,VALID,98.391,VALID,0.027,VALID,18.079,VALID,118.0,VALID,0.022,
2017-07-08, 00:28:07,VALID,920.209,VALID,0.0,VALID,98.356,VALID,0.044,VALID,18.08,VALID,118.0,VALID,0.0,
2017-07-08, 00:29:07,VALID,920.221,VALID,0.0,VALID,98.375,VALID,0.028,VALID,18.099,VALID,118.0,VALID,0.0,
2017-07-08, 00:30:07,VALID,920.209,VALID,0.0,VALID,98.39,VALID,0.034,VALID,18.106,VALID,118.0,VALID,0.0,
2017-07-08, 00:31:07,VALID,920.211,VALID,0.0,VALID,98.379,VALID,0.043,VALID,18.113,VALID,118.0,VALID,0.0,
2017-07-08, 00:32:07,VALID,920.192,VALID,0.0,VALID,98.388,VALID,0.035,VALID,18.126,VALID,118.0,VALID,0.0,
2017-07-08, 00:33:07,VALID,920.198,VALID,0.0,VALID,98.373,VALID,0.049,VALID,18.102,VALID,118.0,VALID,0.0,
2017-07-08, 00:34:07,VALID,920.197,VALID,0.0,VALID,98.31,VALID,0.04,VALID,18.073,VALID,118.0,VALID,0.0,
2017-07-08, 00:35:07,VALID,920.18,VALID,0.0,VALID,98.296,VALID,0.031,VALID,18.074,VALID,118.0,VALID,0.0,
2017-07-08, 00:36:07,VALID,920.185,VALID,0.0,VALID,98.327,VALID,0.041,VALID,18.088,VALID,118.0,VALID,0.0,
2017-07-08, 00:37:07,VALID,920.173,VALID,0.0,VALID,98.303,VALID,0.055,VALID,18.069,VALID,118.0,VALID,0.0,
2017-07-08, 00:38:07,VALID,920.168,VALID,0.0,VALID,98.322,VALID,0.036,VALID,18.089,VALID,118.0,VALID,0.0,
2017-07-08, 00:39:07,VALID,920.174,VALID,0.0,VALID,98.345,VALID,0.02,VALID,18.095,VALID,133.0,VALID,0.053,
2017-07-08, 00:40:07,VALID,920.171,VALID,0.0,VALID,98.298,VALID,0.045,VALID,18.069,VALID,144.0,VALID,0.661,
2017-07-08, 00:41:07,VALID,920.185,VALID,0.0,VALID,98.29,VALID,0.042,VALID,18.062,VALID,151.0,VALID,0.862,
2017-07-08, 00:42:07,VALID,920.18,VALID,0.0,VALID,98.302,VALID,0.022,VALID,18.064,VALID,154.0,VALID,0.823,
2017-07-08, 00:43:07,VALID,920.175,VALID,0.0,VALID,98.312,VALID,0.015,VALID,18.058,VALID,151.0,VALID,0.922,
2017-07-08, 00:44:07,VALID,920.166,VALID,0.0,VALID,98.274,VALID,0.04,VALID,18.038,VALID,146.0,VALID,0.879,
2017-07-08, 00:45:07,VALID,920.153,VALID,0.0,VALID,98.264,VALID,0.041,VALID,18.029,VALID,146.0,VALID,1.013,
2017-07-08, 00:46:07,VALID,920.128,VALID,0.0,VALID,98.279,VALID,0.036,VALID,18.029,VALID,152.0,VALID,0.834,
2017-07-08, 00:47:07,VALID,920.111,VALID,0.0,VALID,98.296,VALID,0.038,VALID,18.029,VALID,163.0,VALID,1.032,
2017-07-08, 00:48:07,VALID,920.089,VALID,0.0,VALID,98.315,VALID,0.023,VALID,18.046,VALID,159.0,VALID,1.059,
2017-07-08, 00:49:07,VALID,920.071,VALID,0.0,VALID,98.279,VALID,0.033,VALID,18.042,VALID,151.0,VALID,1.029,
2017-07-08, 00:50:07,VALID,920.044,VALID,0.0,VALID,98.241,VALID,0.024,VALID,18.039,VALID,157.0,VALID,0.785,
2017-07-08, 00:51:07,VALID,920.022,VALID,0.0,VALID,98.264,VALID,0.033,VALID,18.049,VALID,156.0,VALID,0.645,
2017-07-08, 00:52:07,VALID,920.005,VALID,0.0,VALID,98.268,VALID,0.026,VALID,18.068,VALID,167.0,VALID,0.434,
2017-07-08, 00:53:07,VALID,919.992,VALID,0.0,VALID,98.264,VALID,0.034,VALID,18.072,VALID,158.0,VALID,0.605,
2017-07-08, 00:54:07,VALID,919.959,VALID,0.0,VALID,98.144,VALID,-0.0,VALID,18.066,VALID,139.0,VALID,0.498,
2017-07-08, 00:55:07,VALID,919.932,VALID,0.0,VALID,98.023,VALID,0.004,VALID,18.08,VALID,110.0,VALID,0.59,
2017-07-08, 00:56:07,VALID,919.907,VALID,0.0,VALID,97.995,VALID,-0.003,VALID,18.098,VALID,83.0,VALID,0.5,
2017-07-08, 00:57:07,VALID,919.891,VALID,0.0,VALID,97.99,VALID,0.017,VALID,18.096,VALID,78.0,VALID,0.337,
2017-07-08, 00:58:06,VALID,919.881,VALID,0.0,VALID,97.984,VALID,0.004,VALID,18.09,VALID,79.0,VALID,0.759,
2017-07-08, 00:59:06,VALID,919.864,VALID,0.0,VALID,97.892,VALID,-0.003,VALID,18.069,VALID,80.0,VALID,0.8,
2017-07-08, 01:00:06,VALID,919.861,VALID,0.0,VALID,97.806,VALID,0.018,VALID,18.074,VALID,66.0,VALID,0.742,
2017-07-08, 01:01:06,VALID,919.84,VALID,0.0,VALID,97.796,VALID,0.018,VALID,18.08,VALID,65.0,VALID,0.5,
2017-07-08, 01:02:06,VALID,919.822,VALID,0.0,VALID,97.756,VALID,0.027,VALID,18.075,VALID,74.0,VALID,0.559,
2017-07-08, 01:03:06,VALID,919.826,VALID,0.0,VALID,97.713,VALID,0.033,VALID,18.063,VALID,110.0,VALID,0.162,
2017-07-08, 01:04:06,VALID,919.814,VALID,0.0,VALID,97.705,VALID,0.009,VALID,18.058,VALID,120.0,VALID,0.071,
2017-07-08, 01:05:06,VALID,919.793,VALID,0.0,VALID,97.723,VALID,0.013,VALID,18.053,VALID,121.0,VALID,0.0,
2017-07-08, 01:06:06,VALID,919.777,VALID,0.0,VALID,97.753,VALID,0.016,VALID,18.047,VALID,100.0,VALID,0.075,
2017-07-08, 01:07:06,VALID,919.766,VALID,0.0,VALID,97.794,VALID,0.004,VALID,18.04,VALID,78.0,VALID,0.391,
2017-07-08, 01:08:06,VALID,919.762,VALID,0.0,VALID,97.862,VALID,-0.011,VALID,18.043,VALID,77.0,VALID,0.175,
2017-07-08, 01:09:06,VALID,919.75,VALID,0.0,VALID,97.892,VALID,0.004,VALID,18.032,VALID,79.0,VALID,0.224,
2017-07-08, 01:10:06,VALID,919.725,VALID,0.0,VALID,97.878,VALID,0.0,VALID,18.011,VALID,98.0,VALID,0.388,
2017-07-08, 01:11:06,VALID,919.699,VALID,0.0,VALID,97.91,VALID,0.01,VALID,17.998,VALID,108.0,VALID,0.271,
2017-07-08, 01:12:06,VALID,919.695,VALID,0.0,VALID,97.955,VALID,0.01,VALID,17.991,VALID,112.0,VALID,0.353,
2017-07-08, 01:13:06,VALID,919.682,VALID,0.0,VALID,98.006,VALID,-0.005,VALID,18.002,VALID,108.0,VALID,0.292,
2017-07-08, 01:14:06,VALID,919.668,VALID,0.0,VALID,98.087,VALID,-0.012,VALID,18.02,VALID,72.0,VALID,0.007,
2017-07-08, 01:15:06,VALID,919.663,VALID,0.0,VALID,98.127,VALID,0.01,VALID,18.026,VALID,67.0,VALID,0.0,
2017-07-08, 01:16:06,VALID,919.657,VALID,0.0,VALID,98.09,VALID,0.013,VALID,18.002,VALID,67.0,VALID,0.0,
2017-07-08, 01:17:06,VALID,919.659,VALID,0.0,VALID,98.089,VALID,0.003,VALID,17.982,VALID,76.0,VALID,0.0,
2017-07-08, 01:18:06,VALID,919.67,VALID,0.0,VALID,98.078,VALID,0.005,VALID,17.964,VALID,79.0,VALID,0.011,
2017-07-08, 01:19:06,VALID,919.674,VALID,0.0,VALID,98.106,VALID,-0.006,VALID,17.961,VALID,59.0,VALID,0.426,
2017-07-08, 01:20:06,VALID,919.681,VALID,0.0,VALID,98.154,VALID,0.006,VALID,17.963,VALID,39.0,VALID,0.429,
2017-07-08, 01:21:06,VALID,919.686,VALID,0.0,VALID,98.155,VALID,0.013,VALID,17.968,VALID,26.0,VALID,0.275,
2017-07-08, 01:22:06,VALID,919.689,VALID,0.0,VALID,98.174,VALID,-0.001,VALID,17.971,VALID,10.0,VALID,0.31,
2017-07-08, 01:23:06,VALID,919.691,VALID,0.0,VALID,98.183,VALID,0.007,VALID,17.964,VALID,5.0,VALID,0.253,
2017-07-08, 01:24:06,VALID,919.678,VALID,0.0,VALID,98.165,VALID,0.004,VALID,17.956,VALID,19.0,VALID,0.209,
2017-07-08, 01:25:06,VALID,919.673,VALID,0.0,VALID,98.186,VALID,-0.003,VALID,17.975,VALID,30.0,VALID,0.098,
2017-07-08, 01:26:06,VALID,919.662,VALID,0.0,VALID,98.2,VALID,-0.026,VALID,17.974,VALID,33.0,VALID,0.0,
2017-07-08, 01:27:06,VALID,919.653,VALID,0.0,VALID,98.202,VALID,-0.035,VALID,17.977,VALID,33.0,VALID,0.0,
2017-07-08, 01:28:06,VALID,919.632,VALID,0.0,VALID,98.195,VALID,-0.023,VALID,17.977,VALID,33.0,VALID,0.0,
2017-07-08, 01:29:06,VALID,919.618,VALID,0.0,VALID,98.266,VALID,-0.03,VALID,18.014,VALID,33.0,VALID,0.031,
2017-07-08, 01:30:06,VALID,919.597,VALID,0.0,VALID,98.297,VALID,-0.03,VALID,18.023,VALID,33.0,VALID,0.208,
2017-07-08, 01:31:06,VALID,919.565,VALID,0.0,VALID,98.232,VALID,-0.023,VALID,18.011,VALID,43.0,VALID,0.304,
2017-07-08, 01:32:06,VALID,919.549,VALID,0.0,VALID,98.23,VALID,-0.027,VALID,18.019,VALID,55.0,VALID,0.27,
2017-07-08, 01:33:06,VALID,919.533,VALID,0.0,VALID,98.251,VALID,-0.032,VALID,18.033,VALID,55.0,VALID,0.032,
2017-07-08, 01:34:06,VALID,919.527,VALID,0.0,VALID,98.19,VALID,-0.03,VALID,18.017,VALID,55.0,VALID,0.0,
2017-07-08, 01:35:06,VALID,919.515,VALID,0.0,VALID,98.187,VALID,-0.029,VALID,18.01,VALID,55.0,VALID,0.0,
2017-07-08, 01:36:06,VALID,919.497,VALID,0.0,VALID,98.163,VALID,-0.012,VALID,17.999,VALID,55.0,VALID,0.0,
2017-07-08, 01:37:06,VALID,919.489,VALID,0.0,VALID,98.098,VALID,-0.008,VALID,17.982,VALID,55.0,VALID,0.0,
2017-07-08, 01:38:06,VALID,919.495,VALID,0.0,VALID,98.088,VALID,-0.03,VALID,17.976,VALID,55.0,VALID,0.0,
2017-07-08, 01:39:06,VALID,919.497,VALID,0.0,VALID,98.131,VALID,-0.008,VALID,17.978,VALID,55.0,VALID,0.0,
2017-07-08, 01:40:06,VALID,919.502,VALID,0.0,VALID,98.128,VALID,-0.002,VALID,17.978,VALID,55.0,VALID,0.0,
2017-07-08, 01:41:06,VALID,919.497,VALID,0.0,VALID,98.12,VALID,-0.015,VALID,17.972,VALID,46.0,VALID,0.491,
2017-07-08, 01:42:06,VALID,919.505,VALID,0.0,VALID,98.123,VALID,0.002,VALID,17.98,VALID,60.0,VALID,0.586,
2017-07-08, 01:43:06,VALID,919.485,VALID,0.0,VALID,98.101,VALID,-0.018,VALID,17.982,VALID,62.0,VALID,0.804,
2017-07-08, 01:44:06,VALID,919.487,VALID,0.0,VALID,98.082,VALID,-0.009,VALID,17.987,VALID,61.0,VALID,0.875,
2017-07-08, 01:45:06,VALID,919.489,VALID,0.0,VALID,98.029,VALID,-0.004,VALID,18.001,VALID,63.0,VALID,0.859,
2017-07-08, 01:46:06,VALID,919.49,VALID,0.0,VALID,98.02,VALID,-0.005,VALID,18.008,VALID,64.0,VALID,0.738,
2017-07-08, 01:47:06,VALID,919.506,VALID,0.0,VALID,97.976,VALID,-0.021,VALID,18.021,VALID,62.0,VALID,0.386,
2017-07-08, 01:48:06,VALID,919.514,VALID,0.0,VALID,97.982,VALID,-0.019,VALID,18.037,VALID,60.0,VALID,0.218,
2017-07-08, 01:49:06,VALID,919.504,VALID,0.0,VALID,97.982,VALID,-0.018,VALID,18.052,VALID,57.0,VALID,0.482,
2017-07-08, 01:50:06,VALID,919.477,VALID,0.0,VALID,97.943,VALID,-0.012,VALID,18.063,VALID,57.0,VALID,0.584,
2017-07-08, 01:51:06,VALID,919.462,VALID,0.0,VALID,97.917,VALID,-0.013,VALID,18.074,VALID,58.0,VALID,0.35,
2017-07-08, 01:52:06,VALID,919.462,VALID,0.0,VALID,97.893,VALID,-0.022,VALID,18.079,VALID,58.0,VALID,0.052,
2017-07-08, 01:53:06,VALID,919.443,VALID,0.0,VALID,97.897,VALID,-0.02,VALID,18.092,VALID,58.0,VALID,0.0,
2017-07-08, 01:54:06,VALID,919.401,VALID,0.0,VALID,97.892,VALID,-0.012,VALID,18.101,VALID,58.0,VALID,0.0,
2017-07-08, 01:55:06,VALID,919.366,VALID,0.0,VALID,97.853,VALID,-0.004,VALID,18.091,VALID,74.0,VALID,0.213,
2017-07-08, 01:56:06,VALID,919.335,VALID,0.0,VALID,97.814,VALID,0.003,VALID,18.087,VALID,85.0,VALID,0.134,
2017-07-08, 01:57:06,VALID,919.318,VALID,0.0,VALID,97.833,VALID,-0.01,VALID,18.077,VALID,95.0,VALID,0.0,
2017-07-08, 01:58:06,VALID,919.309,VALID,0.0,VALID,97.861,VALID,0.005,VALID,18.089,VALID,78.0,VALID,0.018,
2017-07-08, 01:59:06,VALID,919.308,VALID,0.0,VALID,97.939,VALID,0.005,VALID,18.118,VALID,359.0,VALID,0.0,
2017-07-08, 02:00:06,VALID,919.264,VALID,0.0,VALID,97.916,VALID,-0.002,VALID,18.12,VALID,26.0,VALID,0.254,
2017-07-08, 02:01:06,VALID,919.262,VALID,0.0,VALID,97.77,VALID,0.007,VALID,18.126,VALID,58.0,VALID,0.587,
2017-07-08, 02:02:06,VALID,919.241,VALID,0.0,VALID,97.628,VALID,0.01,VALID,18.137,VALID,58.0,VALID,0.571,
2017-07-08, 02:03:06,VALID,919.271,VALID,0.0,VALID,97.539,VALID,0.015,VALID,18.152,VALID,58.0,VALID,0.134,
2017-07-08, 02:04:06,VALID,919.268,VALID,0.0,VALID,97.496,VALID,0.008,VALID,18.178,VALID,313.0,VALID,0.419,
2017-07-08, 02:05:06,VALID,919.25,VALID,0.0,VALID,97.409,VALID,-0.005,VALID,18.182,VALID,283.0,VALID,0.023,
2017-07-08, 02:06:06,VALID,919.224,VALID,0.0,VALID,97.453,VALID,-0.004,VALID,18.176,VALID,328.0,VALID,0.0,
2017-07-08, 02:07:06,VALID,919.199,VALID,0.0,VALID,97.423,VALID,0.0,VALID,18.168,VALID,45.0,VALID,0.0,
2017-07-08, 02:08:06,VALID,919.198,VALID,0.0,VALID,97.424,VALID,0.0,VALID,18.165,VALID,48.0,VALID,0.0,
2017-07-08, 02:09:06,VALID,919.199,VALID,0.0,VALID,97.441,VALID,0.005,VALID,18.155,VALID,50.0,VALID,0.0,
2017-07-08, 02:10:06,VALID,919.195,VALID,0.0,VALID,97.436,VALID,0.009,VALID,18.148,VALID,178.0,VALID,0.0,
2017-07-08, 02:11:06,VALID,919.195,VALID,0.0,VALID,97.425,VALID,-0.01,VALID,18.129,VALID,190.0,VALID,0.0,
2017-07-08, 02:12:06,VALID,919.16,VALID,0.0,VALID,97.339,VALID,-0.008,VALID,18.116,VALID,210.0,VALID,0.0,
2017-07-08, 02:13:06,VALID,919.138,VALID,0.0,VALID,97.222,VALID,0.008,VALID,18.122,VALID,140.0,VALID,0.0,
2017-07-08, 02:14:06,VALID,919.131,VALID,0.0,VALID,97.092,VALID,0.0,VALID,18.144,VALID,114.0,VALID,0.0,
2017-07-08, 02:15:06,VALID,919.14,VALID,0.0,VALID,97.015,VALID,0.004,VALID,18.183,VALID,140.0,VALID,0.0,
2017-07-08, 02:16:06,VALID,919.128,VALID,0.0,VALID,96.853,VALID,0.005,VALID,18.201,VALID,81.0,VALID,0.0,
2017-07-08, 02:17:06,VALID,919.122,VALID,0.0,VALID,96.777,VALID,0.002,VALID,18.201,VALID,104.0,VALID,0.0,
2017-07-08, 02:18:06,VALID,919.119,VALID,0.0,VALID,96.738,VALID,0.013,VALID,18.228,VALID,97.0,VALID,0.0,
2017-07-08, 02:19:06,VALID,919.121,VALID,0.0,VALID,96.614,VALID,0.015,VALID,18.229,VALID,92.0,VALID,0.0,
2017-07-08, 02:20:06,VALID,919.126,VALID,0.0,VALID,96.487,VALID,0.022,VALID,18.205,VALID,99.0,VALID,0.0,
2017-07-08, 02:21:06,VALID,919.126,VALID,0.0,VALID,96.485,VALID,0.016,VALID,18.199,VALID,107.0,VALID,0.0,
2017-07-08, 02:22:06,VALID,919.127,VALID,0.0,VALID,96.416,VALID,-0.001,VALID,18.201,VALID,146.0,VALID,0.58,
2017-07-08, 02:23:06,VALID,919.123,VALID,0.0,VALID,96.641,VALID,0.014,VALID,18.181,VALID,151.0,VALID,1.301,
2017-07-08, 02:24:06,VALID,919.114,VALID,0.0,VALID,96.936,VALID,0.011,VALID,18.153,VALID,162.0,VALID,1.192,
2017-07-08, 02:25:06,VALID,919.112,VALID,0.0,VALID,97.232,VALID,0.006,VALID,18.134,VALID,158.0,VALID,0.527,
2017-07-08, 02:26:06,VALID,919.095,VALID,0.0,VALID,97.46,VALID,0.027,VALID,18.114,VALID,168.0,VALID,0.541,
2017-07-08, 02:27:06,VALID,919.088,VALID,0.0,VALID,97.573,VALID,0.01,VALID,18.101,VALID,193.0,VALID,0.15,
2017-07-08, 02:28:06,VALID,919.081,VALID,0.0,VALID,97.645,VALID,-0.011,VALID,18.077,VALID,191.0,VALID,0.204,
2017-07-08, 02:29:06,VALID,919.045,VALID,0.0,VALID,97.729,VALID,-0.001,VALID,18.061,VALID,191.0,VALID,0.079,
2017-07-08, 02:30:06,VALID,919.026,VALID,0.0,VALID,97.797,VALID,0.023,VALID,18.05,VALID,183.0,VALID,0.137,
2017-07-08, 02:31:06,VALID,919.027,VALID,0.0,VALID,97.907,VALID,-0.007,VALID,18.055,VALID,172.0,VALID,0.222,
2017-07-08, 02:32:06,VALID,919.021,VALID,0.0,VALID,97.927,VALID,0.018,VALID,18.037,VALID,157.0,VALID,0.132,
2017-07-08, 02:33:06,VALID,919.022,VALID,0.0,VALID,97.97,VALID,0.007,VALID,18.033,VALID,160.0,VALID,0.009,
2017-07-08, 02:34:06,VALID,919.031,VALID,0.0,VALID,97.999,VALID,-0.005,VALID,18.019,VALID,163.0,VALID,0.001,
2017-07-08, 02:35:06,VALID,919.022,VALID,0.0,VALID,97.997,VALID,0.013,VALID,18.001,VALID,163.0,VALID,0.004,
2017-07-08, 02:36:06,VALID,919.018,VALID,0.0,VALID,98.011,VALID,0.015,VALID,17.983,VALID,163.0,VALID,0.0,
2017-07-08, 02:37:06,VALID,919.018,VALID,0.0,VALID,98.076,VALID,0.003,VALID,17.983,VALID,163.0,VALID,0.0,
2017-07-08, 02:38:06,VALID,919.006,VALID,0.0,VALID,98.116,VALID,-0.01,VALID,17.98,VALID,163.0,VALID,0.0,
2017-07-08, 02:39:06,VALID,918.995,VALID,0.0,VALID,98.16,VALID,0.017,VALID,17.988,VALID,169.0,VALID,0.0,
2017-07-08, 02:40:06,VALID,918.984,VALID,0.0,VALID,98.187,VALID,0.019,VALID,17.98,VALID,165.0,VALID,0.054,
2017-07-08, 02:41:06,VALID,918.976,VALID,0.0,VALID,98.167,VALID,0.02,VALID,17.958,VALID,143.0,VALID,0.644,
2017-07-08, 02:42:06,VALID,918.956,VALID,0.0,VALID,98.202,VALID,0.022,VALID,17.942,VALID,137.0,VALID,0.678,
2017-07-08, 02:43:06,VALID,918.955,VALID,0.0,VALID,98.232,VALID,0.017,VALID,17.932,VALID,126.0,VALID,0.711,
2017-07-08, 02:44:06,VALID,918.964,VALID,0.0,VALID,98.248,VALID,0.009,VALID,17.929,VALID,128.0,VALID,0.779,
2017-07-08, 02:45:06,VALID,918.958,VALID,0.0,VALID,98.292,VALID,0.03,VALID,17.927,VALID,126.0,VALID,0.861,
2017-07-08, 02:46:06,VALID,918.971,VALID,0.0,VALID,98.313,VALID,0.017,VALID,17.926,VALID,125.0,VALID,0.983,
2017-07-08, 02:47:06,VALID,918.97,VALID,0.0,VALID,98.346,VALID,0.007,VALID,17.939,VALID,107.0,VALID,0.92,
2017-07-08, 02:48:06,VALID,918.962,VALID,0.0,VALID,98.347,VALID,0.001,VALID,17.942,VALID,108.0,VALID,0.689,
2017-07-08, 02:49:06,VALID,918.954,VALID,0.0,VALID,98.314,VALID,0.005,VALID,17.939,VALID,109.0,VALID,0.621,
2017-07-08, 02:50:06,VALID,918.929,VALID,0.0,VALID,98.287,VALID,0.001,VALID,17.943,VALID,128.0,VALID,0.655,
2017-07-08, 02:51:06,VALID,918.898,VALID,0.0,VALID,98.253,VALID,-0.003,VALID,17.948,VALID,129.0,VALID,0.713,
2017-07-08, 02:52:06,VALID,918.887,VALID,0.0,VALID,98.213,VALID,-0.013,VALID,17.954,VALID,108.0,VALID,0.505,
2017-07-08, 02:53:06,VALID,918.852,VALID,0.0,VALID,98.137,VALID,-0.003,VALID,17.941,VALID,109.0,VALID,0.688,
2017-07-08, 02:54:06,VALID,918.84,VALID,0.0,VALID,98.122,VALID,-0.022,VALID,17.949,VALID,113.0,VALID,0.819,
2017-07-08, 02:55:06,VALID,918.819,VALID,0.0,VALID,98.09,VALID,-0.013,VALID,17.946,VALID,110.0,VALID,0.799,
2017-07-08, 02:56:06,VALID,918.814,VALID,0.0,VALID,98.038,VALID,-0.027,VALID,17.941,VALID,112.0,VALID,0.667,
2017-07-08, 02:57:06,VALID,918.811,VALID,0.0,VALID,97.99,VALID,-0.018,VALID,17.937,VALID,112.0,VALID,0.778,
2017-07-08, 02:58:06,VALID,918.769,VALID,0.0,VALID,97.946,VALID,-0.019,VALID,17.955,VALID,109.0,VALID,0.925,
2017-07-08, 02:59:06,VALID,918.748,VALID,0.0,VALID,97.837,VALID,-0.016,VALID,17.956,VALID,105.0,VALID,0.848,
2017-07-08, 03:00:06,VALID,918.738,VALID,0.0,VALID,97.757,VALID,-0.02,VALID,17.96,VALID,115.0,VALID,0.668,
2017-07-08, 03:01:06,VALID,918.722,VALID,0.0,VALID,97.704,VALID,-0.017,VALID,17.954,VALID,122.0,VALID,0.762,
2017-07-08, 03:02:06,VALID,918.705,VALID,0.0,VALID,97.646,VALID,-0.028,VALID,17.957,VALID,124.0,VALID,0.62,
2017-07-08, 03:03:06,VALID,918.696,VALID,0.0,VALID,97.592,VALID,-0.026,VALID,17.942,VALID,132.0,VALID,0.596,
2017-07-08, 03:04:06,VALID,918.68,VALID,0.0,VALID,97.563,VALID,-0.04,VALID,17.924,VALID,123.0,VALID,0.569,
2017-07-08, 03:05:06,VALID,918.656,VALID,0.0,VALID,97.556,VALID,-0.026,VALID,17.906,VALID,114.0,VALID,0.7,
2017-07-08, 03:06:06,VALID,918.643,VALID,0.0,VALID,97.63,VALID,-0.019,VALID,17.91,VALID,113.0,VALID,1.018,
2017-07-08, 03:07:06,VALID,918.63,VALID,0.0,VALID,97.663,VALID,-0.009,VALID,17.892,VALID,111.0,VALID,0.762,
2017-07-08, 03:08:06,VALID,918.622,VALID,0.0,VALID,97.648,VALID,-0.023,VALID,17.864,VALID,117.0,VALID,0.668,
2017-07-08, 03:09:06,VALID,918.61,VALID,0.0,VALID,97.637,VALID,0.01,VALID,17.842,VALID,132.0,VALID,0.789,
2017-07-08, 03:10:06,VALID,918.604,VALID,0.0,VALID,97.741,VALID,0.004,VALID,17.833,VALID,136.0,VALID,0.82,
2017-07-08, 03:11:06,VALID,918.588,VALID,0.0,VALID,97.787,VALID,0.013,VALID,17.805,VALID,137.0,VALID,0.887,
2017-07-08, 03:12:06,VALID,918.581,VALID,0.0,VALID,97.899,VALID,0.01,VALID,17.808,VALID,143.0,VALID,1.162,
2017-07-08, 03:13:06,VALID,918.576,VALID,0.0,VALID,97.992,VALID,0.02,VALID,17.796,VALID,138.0,VALID,1.27,
2017-07-08, 03:14:06,VALID,918.575,VALID,0.0,VALID,98.074,VALID,0.022,VALID,17.777,VALID,138.0,VALID,1.129,
2017-07-08, 03:15:06,VALID,918.579,VALID,0.0,VALID,98.11,VALID,0.023,VALID,17.764,VALID,136.0,VALID,0.975,
2017-07-08, 03:16:06,VALID,918.555,VALID,0.0,VALID,98.131,VALID,0.019,VALID,17.75,VALID,128.0,VALID,1.041,
2017-07-08, 03:17:06,VALID,918.543,VALID,0.0,VALID,98.153,VALID,0.004,VALID,17.735,VALID,122.0,VALID,0.814,
2017-07-08, 03:18:06,VALID,918.53,VALID,0.0,VALID,98.154,VALID,0.019,VALID,17.714,VALID,119.0,VALID,0.709,
2017-07-08, 03:19:06,VALID,918.515,VALID,0.0,VALID,98.143,VALID,0.012,VALID,17.689,VALID,131.0,VALID,0.367,
2017-07-08, 03:20:06,VALID,918.519,VALID,0.0,VALID,98.119,VALID,-0.001,VALID,17.665,VALID,137.0,VALID,0.501,
2017-07-08, 03:21:06,VALID,918.512,VALID,0.0,VALID,98.117,VALID,-0.012,VALID,17.655,VALID,128.0,VALID,0.605,
2017-07-08, 03:22:06,VALID,918.516,VALID,0.0,VALID,98.122,VALID,-0.002,VALID,17.664,VALID,116.0,VALID,0.661,
2017-07-08, 03:23:06,VALID,918.519,VALID,0.0,VALID,98.119,VALID,0.029,VALID,17.684,VALID,119.0,VALID,0.738,
2017-07-08, 03:24:06,VALID,918.522,VALID,0.0,VALID,98.098,VALID,0.012,VALID,17.691,VALID,129.0,VALID,0.543,
2017-07-08, 03:25:06,VALID,918.511,VALID,0.0,VALID,98.036,VALID,0.006,VALID,17.684,VALID,132.0,VALID,0.511,
2017-07-08, 03:26:06,VALID,918.515,VALID,0.0,VALID,98.047,VALID,-0.012,VALID,17.725,VALID,138.0,VALID,0.55,
2017-07-08, 03:27:06,VALID,918.517,VALID,0.0,VALID,98.106,VALID,0.01,VALID,17.776,VALID,138.0,VALID,0.707,
2017-07-08, 03:28:06,VALID,918.522,VALID,0.0,VALID,98.13,VALID,0.017,VALID,17.817,VALID,128.0,VALID,0.541,
2017-07-08, 03:29:06,VALID,918.527,VALID,0.0,VALID,98.054,VALID,0.005,VALID,17.822,VALID,124.0,VALID,0.288,
2017-07-08, 03:30:06,VALID,918.546,VALID,0.0,VALID,97.941,VALID,0.01,VALID,17.808,VALID,116.0,VALID,0.158,
2017-07-08, 03:31:06,VALID,918.559,VALID,0.0,VALID,97.849,VALID,0.009,VALID,17.783,VALID,115.0,VALID,0.014,
2017-07-08, 03:32:06,VALID,918.565,VALID,0.0,VALID,97.747,VALID,-0.002,VALID,17.756,VALID,115.0,VALID,0.001,
2017-07-08, 03:33:06,VALID,918.557,VALID,0.0,VALID,97.69,VALID,-0.004,VALID,17.74,VALID,115.0,VALID,0.0,
2017-07-08, 03:34:06,VALID,918.55,VALID,0.0,VALID,97.582,VALID,-0.017,VALID,17.717,VALID,115.0,VALID,0.0,
2017-07-08, 03:35:06,VALID,918.523,VALID,0.0,VALID,97.574,VALID,0.016,VALID,17.718,VALID,115.0,VALID,0.0,
2017-07-08, 03:36:06,VALID,918.52,VALID,0.0,VALID,97.551,VALID,0.022,VALID,17.719,VALID,115.0,VALID,0.0,
2017-07-08, 03:37:06,VALID,918.52,VALID,0.0,VALID,97.522,VALID,0.013,VALID,17.725,VALID,8.0,VALID,0.352,
2017-07-08, 03:38:06,VALID,918.521,VALID,0.0,VALID,97.533,VALID,0.008,VALID,17.762,VALID,305.0,VALID,0.461,
2017-07-08, 03:39:06,VALID,918.516,VALID,0.0,VALID,97.593,VALID,0.011,VALID,17.791,VALID,305.0,VALID,0.0,
2017-07-08, 03:40:06,VALID,918.539,VALID,0.0,VALID,97.601,VALID,0.019,VALID,17.794,VALID,305.0,VALID,0.0,